FW1899 Weather Reports


time (UTC)temp
F
wind
direction
speed
knots
gust
knots
rain 1hr
in
rain 24hr
in
rain mn
in
humidity
%
barometer
mb
20260507141340 70 212 4.3 7.0 0.00 0.00 0.00 48 1004.7
20260507140640 70 185 4.3 7.0 0.00 0.00 0.00 48 1004.7
20260507135940 69 233 4.3 7.0 0.00 0.00 0.00 48 1004.6
20260507135240 70 207 4.3 7.8 0.00 0.00 0.00 46 1004.8
20260507134540 70 175 4.3 7.8 0.00 0.00 0.00 48 1004.9
20260507133840 71 175 4.3 6.1 0.00 0.00 0.00 48 1005.0
20260507133140 70 212 4.3 7.0 0.00 0.00 0.00 49 1005.0
20260507131740 70 220 4.3 6.1 0.00 0.00 0.00 49 1005.0
20260507131040 71 198 4.3 6.1 0.00 0.00 0.00 50 1005.1
20260507130340 70 183 4.3 7.0 0.00 0.00 0.00 50 1005.2
20260507125640 70 179 4.3 7.0 0.00 0.00 0.00 49 1005.2
20260507124940 70 173 4.3 6.1 0.00 0.00 0.00 49 1005.4
20260507124240 71 207 4.3 7.0 0.00 0.00 0.00 49 1005.3
20260507123540 71 179 4.3 7.0 0.00 0.00 0.00 50 1005.5
20260507122140 70 162 4.3 7.0 0.00 0.00 0.00 52 1005.4
20260507121440 69 182 4.3 7.0 0.00 0.00 0.00 52 1005.4
20260507120740 69 204 3.5 4.3 0.00 0.00 0.00 53 1005.5
20260507120040 69 185 3.5 5.2 0.00 0.00 0.00 52 1005.6
20260507115340 68 226 3.5 5.2 0.00 0.00 0.00 53 1005.6
20260507114640 68 170 3.5 4.3 0.00 0.00 0.00 54 1005.5
20260507113940 67 185 3.5 4.3 0.00 0.00 0.00 55 1005.5
20260507113240 66 201 2.6 4.3 0.00 0.00 0.00 53 1005.4
20260507111840 68 259 2.6 4.3 0.00 0.00 0.00 51 1005.5
20260507111141 68 265 2.6 3.5 0.00 0.00 0.00 52 1005.6
20260507110440 68 270 1.7 3.5 0.00 0.00 0.00 51 1005.6
20260507105740 68 233 3.5 5.2 0.00 0.00 0.00 51 1005.8
20260507105040 68 226 4.3 5.2 0.00 0.00 0.00 52 1005.8
20260507104340 69 197 3.5 4.3 0.00 0.00 0.00 51 1005.7
20260507103640 69 203 4.3 6.1 0.00 0.00 0.00 51 1005.6
20260507102941 68 232 3.5 6.1 0.00 0.00 0.00 51 1005.7
20260507102240 69 185 3.5 4.3 0.00 0.00 0.00 52 1005.8
20260507101540 68 162 4.3 5.2 0.00 0.00 0.00 54 1005.8
20260507100841 68 138 4.3 5.2 0.00 0.00 0.00 55 1005.8
20260507100141 67 172 3.5 4.3 0.00 0.00 0.00 55 1005.8
20260507095441 66 225 3.5 5.2 0.00 0.00 0.00 57 1005.7
20260507094041 64 186 3.5 7.0 0.00 0.00 0.00 60 1005.9
20260507093341 65 210 2.6 5.2 0.00 0.00 0.00 60 1005.7
20260507092641 65 200 3.5 4.3 0.00 0.00 0.00 58 1005.7
20260507091941 66 185 3.5 4.3 0.00 0.00 0.00 58 1005.8
20260507091241 66 213 4.3 7.0 0.00 0.00 0.00 60 1005.7
20260507090541 65 215 4.3 7.0 0.00 0.00 0.00 60 1005.6
20260507085841 65 188 3.5 4.3 0.00 0.00 0.00 61 1005.6
20260507085141 65 191 3.5 5.2 0.00 0.00 0.00 62 1005.5
20260507084441 64 200 3.5 4.3 0.00 0.00 0.00 64 1005.5
20260507083741 63 220 2.6 4.3 0.00 0.00 0.00 70 1005.3
20260507082341 62 221 0.9 1.7 0.00 0.00 0.00 72 1005.4
20260507081641 61 205 1.7 2.6 0.00 0.00 0.00 71 1005.5
20260507080941 61 243 1.7 2.6 0.00 0.00 0.00 72 1005.5
20260507074842 62 204 1.7 2.6 0.00 0.00 0.00 73 1005.4
20260507074141 61 201 0.9 2.6 0.00 0.00 0.00 74 1005.5
20260507073441 61 190 0.0 0.9 0.00 0.00 0.00 75 1005.7
20260507072741 61 229 0.9 1.7 0.00 0.00 0.00 80 1005.7
20260507072041 60 209 0.0 1.7 0.00 0.00 0.00 86 1005.6
20260507071341 58 225 0.0 0.9 0.00 0.00 0.00 88 1005.4
20260507070641 57 225 0.0 0.9 0.00 0.00 0.00 90 1005.5
20260507065941 57 0 0.0 0.0 0.00 0.00 0.00 91 1005.5
20260507065241 57 0 0.0 0.0 0.00 0.00 0.00 91 1005.5
20260507064541 57 0 0.0 0.0 0.00 0.00 0.00 91 1005.3
20260507063842 56 0 0.0 0.0 0.00 0.00 0.00 92 1005.3
20260507062441 55 0 0.0 0.0 0.00 0.00 0.00 91 1005.2
20260507061741 55 0 0.0 0.0 0.00 0.00 0.00 91 1005.1
20260507061042 54 0 0.0 0.0 0.00 0.00 0.00 93 1005.0
20260507060341 54 0 0.0 0.0 0.00 0.00 0.00 93 1005.0
20260507055642 54 0 0.0 0.0 0.00 0.00 0.00 93 1004.9
20260507054242 53 0 0.0 0.0 0.00 0.00 0.00 92 1004.8
20260507053542 52 0 0.0 0.0 0.00 0.00 0.00 92 1004.7
20260507052842 52 0 0.0 0.0 0.00 0.00 0.00 91 1004.8
20260507052142 52 0 0.0 0.0 0.00 0.00 0.00 91 1004.6
20260507051442 52 270 0.0 0.9 0.00 0.00 0.00 91 1004.6
20260507050042 52 0 0.0 0.0 0.00 0.00 0.00 91 1004.5
20260507045342 52 0 0.0 0.0 0.00 0.00 0.00 90 1004.3
20260507043942 52 0 0.0 0.0 0.00 0.00 0.00 90 1004.4
20260507043242 52 0 0.0 0.0 0.00 0.00 0.00 90 1004.5
20260507042542 52 0 0.0 0.0 0.00 0.00 0.00 90 1004.5
20260507041842 52 0 0.0 0.0 0.00 0.00 0.00 90 1004.5
20260507041142 52 0 0.0 0.0 0.00 0.00 0.00 90 1004.5
20260507040442 52 304 0.0 1.7 0.00 0.00 0.00 89 1004.4
20260507035742 52 314 0.0 1.7 0.00 0.00 0.00 89 1004.4
20260507035042 52 0 0.0 0.0 0.00 0.00 0.00 89 1004.5
20260507033642 52 0 0.0 0.0 0.00 0.00 0.00 88 1004.5
20260507032943 52 0 0.0 0.0 0.00 0.00 0.00 88 1004.6
20260507031542 52 0 0.0 0.0 0.00 0.00 0.00 88 1004.7
20260507030842 53 0 0.0 0.0 0.00 0.00 0.00 88 1004.6
20260507030142 53 314 0.0 0.9 0.00 0.00 0.00 88 1004.6
20260507025442 53 0 0.0 0.0 0.00 0.00 0.00 88 1004.8
20260507024743 53 0 0.0 0.0 0.00 0.00 0.00 88 1004.7
20260507024042 53 0 0.0 0.0 0.00 0.00 0.00 88 1004.7
20260507023342 53 0 0.0 0.0 0.00 0.00 0.00 88 1004.7
20260507021243 53 0 0.0 0.0 0.00 0.00 0.00 86 1004.7
20260507020543 53 0 0.0 0.0 0.00 0.00 0.00 85 1004.7
20260507015843 53 0 0.0 0.0 0.00 0.00 0.00 85 1004.9
20260507015142 53 0 0.0 0.0 0.00 0.00 0.00 85 1004.8
20260507014443 53 0 0.0 0.0 0.00 0.00 0.00 85 1004.8
20260507013743 53 0 0.0 0.0 0.00 0.00 0.00 85 1004.9
20260507013043 53 0 0.0 0.0 0.00 0.00 0.00 85 1005.1
20260507012343 53 0 0.0 0.0 0.00 0.00 0.00 85 1004.9
20260507011643 53 0 0.0 0.0 0.00 0.00 0.00 85 1005.0
20260507010943 53 0 0.0 0.0 0.00 0.00 0.00 85 1005.0
20260507010243 53 0 0.0 0.0 0.00 0.00 0.00 84 1005.0
20260507005543 53 0 0.0 0.0 0.00 0.00 0.00 84 1005.0
20260507004843 53 0 0.0 0.0 0.00 0.00 0.00 84 1005.1
20260507004143 53 0 0.0 0.0 0.00 0.00 0.00 83 1005.1
20260507003443 53 0 0.0 0.0 0.00 0.00 0.00 83 1005.1
20260507002743 53 0 0.0 0.0 0.00 0.00 0.00 83 1005.2
20260507002043 53 0 0.0 0.0 0.00 0.00 0.00 83 1005.3
20260507001343 53 0 0.0 0.0 0.00 0.00 0.00 82 1005.4
20260507000643 53 0 0.0 0.0 0.00 0.00 0.00 82 1005.5
20260506235943 53 0 0.0 0.0 0.00 0.00 0.00 82 1005.5
20260506235243 53 0 0.0 0.0 0.00 0.00 0.00 82 1005.5
20260506234543 53 0 0.0 0.0 0.00 0.00 0.00 82 1005.5
20260506233844 53 0 0.0 0.0 0.00 0.00 0.00 82 1005.5
20260506233143 53 314 0.0 1.7 0.00 0.00 0.00 81 1005.5
20260506232443 53 296 0.0 1.7 0.00 0.00 0.00 81 1005.4
20260506231743 53 306 0.0 1.7 0.00 0.00 0.00 81 1005.4
20260506231044 53 0 0.0 0.0 0.00 0.00 0.00 80 1005.5
20260506230343 53 0 0.0 0.0 0.00 0.00 0.00 80 1005.5
20260506225643 54 0 0.0 0.0 0.00 0.00 0.00 81 1005.3
20260506223546 54 0 0.0 0.0 0.00 0.00 0.00 80 1005.3
20260506222843 54 304 0.0 1.7 0.00 0.00 0.00 79 1005.5
20260506222143 53 314 0.0 0.9 0.00 0.00 0.00 78 1005.6
20260506220744 54 0 0.0 0.0 0.00 0.00 0.00 78 1005.6
20260506220043 54 0 0.0 0.0 0.00 0.00 0.00 77 1005.6
20260506215343 54 0 0.0 0.0 0.00 0.00 0.00 77 1005.6
20260506214644 54 0 0.0 0.0 0.00 0.00 0.00 77 1005.6
20260506213944 54 0 0.0 0.0 0.00 0.00 0.00 76 1005.6
20260506212544 54 0 0.0 0.0 0.00 0.00 0.00 74 1005.7
20260506211844 54 0 0.0 0.0 0.00 0.00 0.00 72 1005.8
20260506210444 55 0 0.0 0.0 0.00 0.00 0.00 71 1005.6
20260506205744 55 0 0.0 0.0 0.00 0.00 0.00 71 1005.6
20260506205044 55 0 0.0 0.0 0.00 0.00 0.00 70 1005.6
20260506204344 55 0 0.0 0.0 0.00 0.00 0.00 70 1005.5
20260506203644 55 0 0.0 0.0 0.00 0.00 0.00 69 1005.6
20260506202944 56 0 0.0 0.0 0.00 0.00 0.00 68 1005.4
20260506202244 56 0 0.0 0.0 0.00 0.00 0.00 67 1005.3
20260506201544 56 0 0.0 0.0 0.00 0.00 0.00 67 1005.1
20260506200844 56 0 0.0 0.0 0.00 0.00 0.00 66 1005.0
20260506200144 56 0 0.0 0.0 0.00 0.00 0.00 64 1005.1
20260506195444 57 0 0.0 0.0 0.00 0.00 0.00 63 1005.0
20260506194744 57 0 0.0 0.0 0.00 0.00 0.00 62 1005.1
20260506194044 57 0 0.0 0.0 0.00 0.00 0.00 61 1004.9
20260506193344 58 0 0.0 0.0 0.00 0.00 0.00 61 1004.7
20260506192644 58 0 0.0 0.0 0.00 0.00 0.00 60 1004.7
20260506191244 60 0 0.0 0.0 0.00 0.00 0.00 55 1004.6
20260506190544 60 0 0.0 0.0 0.00 0.00 0.00 54 1004.5
20260506185844 61 225 0.0 1.7 0.00 0.00 0.00 53 1004.4
20260506184444 63 226 0.9 1.7 0.00 0.00 0.00 50 1004.1
20260506183744 64 228 1.7 1.7 0.00 0.00 0.00 44 1004.1
20260506183044 65 205 1.7 1.7 0.00 0.00 0.00 43 1004.0
20260506182344 65 182 1.7 2.6 0.00 0.00 0.00 42 1004.0
20260506181645 66 213 2.6 3.5 0.00 0.00 0.00 41 1003.9
20260506180944 67 191 1.7 3.5 0.00 0.00 0.00 40 1003.7
20260506180245 68 196 1.7 2.6 0.00 0.00 0.00 40 1003.5
20260506175545 69 208 2.6 2.6 0.00 0.00 0.00 39 1003.5
20260506174845 70 194 2.6 3.5 0.00 0.01 0.00 40 1003.4
20260506174145 71 195 2.6 2.6 0.00 0.01 0.00 40 1003.4
20260506173445 71 183 2.6 3.5 0.00 0.02 0.00 40 1003.4
20260506172745 72 166 2.6 3.5 0.00 0.02 0.00 40 1003.3
20260506170645 72 202 2.6 3.5 0.00 0.02 0.00 34 1002.9
20260506165945 73 240 2.6 3.5 0.00 0.02 0.00 35 1003.1
20260506164545 73 183 3.5 4.3 0.00 0.02 0.00 36 1002.9
20260506163845 74 176 3.5 4.3 0.00 0.02 0.00 35 1002.9
20260506163145 74 161 3.5 4.3 0.00 0.02 0.00 36 1002.8
20260506162445 74 188 3.5 4.3 0.00 0.02 0.00 35 1002.8
20260506161745 74 190 3.5 4.3 0.00 0.02 0.00 34 1002.8
20260506161045 75 195 3.5 3.5 0.00 0.02 0.00 32 1002.7
20260506160345 76 229 3.5 4.3 0.00 0.02 0.00 31 1002.7
20260506154945 74 179 3.5 5.2 0.00 0.02 0.00 34 1002.5
20260506152846 75 193 3.5 4.3 0.00 0.02 0.00 32 1002.6
20260506152145 75 187 3.5 6.1 0.00 0.02 0.00 34 1002.5
20260506150745 72 245 2.6 5.2 0.00 0.02 0.00 41 1002.6
20260506150045 70 220 4.3 7.0 0.00 0.02 0.00 40 1002.7
20260506145345 71 206 4.3 7.0 0.00 0.02 0.00 40 1002.7
20260506144645 70 208 4.3 7.0 0.00 0.02 0.00 40 1002.6
20260506143945 70 237 3.5 7.0 0.00 0.02 0.00 41 1002.9
20260506143245 67 242 4.3 7.0 0.00 0.02 0.00 43 1002.8